Location: Little Osaka
(37.7858°N, 122.4300°W)
Time: 14:18:39
(UTC+00:00)

Daily predictions for brighter satellites

Satellite Brightness Start Highest point End
(mag) Time Altitude Azimuth Time Altitude Azimuth Time Altitude Azimuth
USA 238 DEB 4.2 12:10:11 50° NE 12:10:11 50° NE 12:15:04 10° NE
USA 238 4.1 12:10:15 51° NE 12:10:15 51° NE 12:15:10 10° NE
Cosmos 1943 Rocket 3.5 12:34:38 29° NNE 12:34:38 29° NNE 12:37:17 10° NNE
Tsikada Rocket 4.1 12:27:49 10° S 12:33:57 73° E 12:40:12 10° N
Cosmos 2082 Rocket 3.9 12:45:14 20° SSW 12:45:14 20° SSW 12:47:00 10° S
Cosmos 921 Rocket 4.3 12:54:49 25° NNE 12:56:53 40° ENE 13:01:05 10° SE
DELTA 2 R/B (1) 3.7 12:56:59 52° SSW 12:58:06 66° SSE 13:03:36 10° ENE
Envisat 3.5 12:54:15 10° NNE 12:59:17 60° E 13:04:17 10° S
MOS 1-B Rocket 4.2 12:54:02 10° SSE 13:00:32 71° ENE 13:06:19 10° N
Cosmos 2098 Rocket 3.9 12:57:13 10° SSE 13:00:41 45° E 13:04:58 10° NNE
Cosmos 968 Rocket 3.5 13:03:36 59° NNW 13:03:36 59° NNW 13:08:04 10° NNE
Cosmos 1766 Rocket 4.4 13:05:27 10° SSE 13:09:38 49° E 13:13:49 10° NNE
Cosmos 1151 Rocket 4.2 13:06:33 10° N 13:10:45 43° E 13:14:55 10° SSE
Meteor 2-3 Rocket 3.7 13:05:39 10° SSW 13:11:07 53° WNW 13:16:43 10° N
CENTAUR R/B 3.3 13:12:13 32° NW 13:12:13 32° NW 13:17:50 10° NNE
Meteor 1-31 Rocket 3.3 13:09:44 10° NNE 13:13:36 59° E 13:17:26 10° S
Cosmos 1782 2.6 13:14:10 82° WNW 13:14:15 83° W 13:18:11 10° S
Hubble Space Telescope 3.0 13:15:04 13° SSW 13:15:09 13° SSW 13:17:13 10° SSE
Cosmos 1862 3.8 13:14:26 10° S 13:18:17 58° E 13:22:11 10° NNE
ATLAS 5 CENTAUR R/B 4.3 13:17:36 10° SSE 13:20:05 17° ESE 13:22:40 10° ENE
FALCON 9 R/B 4.3 13:05:29 26° W 13:22:29 77° S 13:30:05 10° ESE
CBERS 1 LM4 rocket 4.4 13:18:14 10° NNE 13:23:09 84° ESE 13:28:13 10° SSW
SJ-12 3.8 13:19:22 10° N 13:23:30 71° WNW 13:27:36 10° SSW
Meteor 2-13 Rocket 4.3 13:18:22 10° SSW 13:24:26 67° W 13:30:30 10° N
Cosmos 1570 Rocket 4.3 13:24:54 40° W 13:25:25 41° WSW 13:30:19 10° S
H-2A R/B 2.5 13:21:44 10° N 13:25:25 65° WNW 13:29:08 10° SSW
ADEOS 4.3 13:20:41 10° NNE 13:25:48 54° E 13:30:53 10° S
COSMO-SKYMED 1 2.6 13:23:28 10° SSE 13:27:48 83° ENE 13:31:50 12° N
CZ-4C R/B 4.2 13:27:35 10° SE 13:30:31 36° ENE 13:33:25 10° N
Meteor 1-26 Rocket 4.3 13:26:16 12° NNW 13:31:31 56° W 13:37:04 10° S
NOSS 3-2 (C) 4.0 13:31:04 30° NW 13:31:36 31° NW 13:37:07 10° NNE
Gbstr 26 Del rocket 3.3 13:33:47 38° WSW 13:34:23 40° SW 13:38:29 10° SSE
Cosmos 2263 4.1 13:28:55 10° SSW 13:34:34 72° WNW 13:40:19 10° NNE
CZ-2C R/B 4.3 13:30:23 10° NNE 13:35:02 41° E 13:39:52 10° S
Helios 1B 4.4 13:32:22 10° S 13:36:40 73° WSW 13:40:24 14° NNW
ATLAS 3B R/B 4.2 13:33:29 10° S 13:39:15 36° ESE 13:45:14 10° NE
CZ-4B R/B 4.4 13:36:39 10° NNE 13:39:55 33° E 13:43:12 10° SSE
Cosmos 1408 Rocket 4.2 13:40:29 10° S 13:44:41 55° E 13:48:53 10° NNE
Cosmos 2369 Rocket 2.6 13:42:30 10° SW 13:47:41 39° WNW 13:52:55 10° N
Cosmos 2142 Rocket 4.5 13:44:12 10° N 13:50:32 76° W 13:56:54 10° S
Iridium 2 4.3 13:49:50 10° SSW 13:53:16 33° W 13:56:45 10° NNW
Cosmos 836 Rocket 4.4 13:49:41 10° NNW 13:54:56 74° WSW 14:00:06 10° S
Cosmos 2279 Rocket 3.9 13:54:21 10° NNW 14:00:29 67° W 14:06:36 10° S
USA 215 3.4 13:56:41 10° SE 14:03:10 75° NE 14:09:42 10° NW
Cosmos 1503 Rocket 4.1 13:59:09 10° SW 14:04:17 53° WNW 14:09:29 10° N
Cosmos 1515 Rocket 3.9 14:00:54 10° N 14:05:15 66° E 14:09:33 10° SSE
Nadezhda 4 Rocket 4.1 14:00:00 10° S 14:06:07 81° E 14:12:21 10° N
SL-27 R/B 4.2 14:03:41 10° N 14:06:56 32° ENE 14:10:08 10° SE
DMSP B5D2-2 4.2 14:02:06 10° SSE 14:07:17 78° ENE 14:12:31 10° N
SJ 16-02 1.9 14:04:15 10° S 14:08:34 62° ESE 14:12:54 10° NNE
Cosmos 1656 Rocket 4.1 14:04:20 10° SW 14:09:15 35° WNW 14:14:14 10° N
Cosmos 1340 Rocket 3.6 14:06:03 10° S 14:09:52 53° E 14:13:45 10° NNE
CZ-2C R/B 3.3 14:09:22 10° SSW 14:14:24 36° W 14:19:23 10° NNW
Cosmos 1777 Rocket 4.1 14:10:17 10° SSW 14:15:28 85° ESE 14:20:44 10° NNE
Cosmos 1943 Rocket 4.0 14:16:14 11° NW 14:16:21 11° NW 14:17:52 10° NNW
Cosmos 1500 Rocket 3.7 14:16:34 10° S 14:21:00 82° E 14:25:29 10° N
Landsat 5 4.4 14:17:31 10° SSW 14:21:33 32° W 14:25:35 10° NNW
Cosmos 1939 Rocket 2.8 14:18:17 10° NNE 14:22:14 87° E 14:26:05 10° SSW
NOAA 6 4.4 14:22:27 10° NNE 14:27:34 71° ESE 14:32:39 10° S
Cosmos 773 Rocket 4.1 14:22:26 10° NNW 14:27:41 82° ENE 14:32:50 10° SSE
Cosmos 1812 4.4 14:27:51 10° NW 14:30:09 15° W 14:32:26 10° SW
Cosmos 1805 Rocket 4.2 14:28:24 10° S 14:32:44 61° E 14:37:04 10° NNE
Sich 1 4.2 14:29:36 10° SSE 14:33:42 47° E 14:37:49 10° NNE
Meteor 1-27 Rocket 3.8 14:29:21 10° N 14:35:01 81° W 14:40:47 10° S
H-2A R/B 2.0 14:31:00 10° S 14:35:13 81° WSW 14:39:34 10° NNW
Envisat 4.5 14:34:52 10° NNW 14:37:45 15° WNW 14:40:38 10° W
Okean O Rocket 4.3 14:36:52 10° NE 14:40:32 25° E 14:44:08 10° SSE
NOAA 12 4.2 14:36:14 10° N 14:41:21 54° WNW 14:46:25 10° SSW
BREEZE-M DEB (TANK) 3.7 14:39:43 10° WSW 14:50:32 43° NW 14:53:54 10° NE
